Time,TemperatureF,DewpointF,PressureIn,WindDirection,WindDirectionDegrees,WindSpeedMPH,WindSpeedGustMPH,Humidity,HourlyPrecipIn,Conditions,Clouds,dailyrainin,SoftwareType,DateUTC
2013-12-01 00:00:00,40.5,24.2,30.31,SSE,156,0.0,0.0,52,0.00,,,0.00,Wunderground v.1.15,2013-12-01 05:00:00,
2013-12-01 00:01:00,40.5,24.2,30.31,SSE,156,0.0,0.0,52,0.00,,,0.00,Wunderground v.1.15,2013-12-01 05:01:00,
2013-12-01 00:04:00,40.3,24.5,30.31,SSE,156,0.0,0.0,53,0.00,,,0.00,Wunderground v.1.15,2013-12-01 05:04:00,
2013-12-01 00:05:00,40.2,24.0,30.31,SSE,157,0.0,1.0,52,0.00,,,0.00,Wunderground v.1.15,2013-12-01 05:05:00,
2013-12-01 00:06:00,40.3,24.1,30.31,SSE,157,1.0,1.0,52,0.00,,,0.00,Wunderground v.1.15,2013-12-01 05:06:00,
2013-12-01 00:08:00,40.5,24.2,30.32,SSE,157,1.0,3.0,52,0.00,,,0.00,Wunderground v.1.15,2013-12-01 05:08:00,
2013-12-01 00:14:00,40.3,24.1,30.32,SSE,157,1.0,1.0,52,0.00,,,0.00,Wunderground v.1.15,2013-12-01 05:14:00,
2013-12-01 00:19:00,40.2,24.4,30.32,SSE,157,0.0,1.0,53,0.00,,,0.00,Wunderground v.1.15,2013-12-01 05:19:00,
2013-12-01 00:25:00,40.2,24.0,30.32,SSE,157,0.0,0.0,52,0.00,,,0.00,Wunderground v.1.15,2013-12-01 05:25:00,
2013-12-01 00:30:00,40.1,23.9,30.32,SSE,157,0.0,5.0,52,0.00,,,0.00,Wunderground v.1.15,2013-12-01 05:30:00,
2013-12-01 00:36:00,40.1,24.3,30.32,SSE,157,0.0,5.0,53,0.00,,,0.00,Wunderground v.1.15,2013-12-01 05:36:00,
2013-12-01 00:40:00,39.9,24.1,30.31,SSE,165,1.0,5.0,53,0.00,,,0.00,Wunderground v.1.15,2013-12-01 05:40:00,
2013-12-01 00:46:00,40.2,24.0,30.31,SSE,165,1.0,5.0,52,0.00,,,0.00,Wunderground v.1.15,2013-12-01 05:46:00,
2013-12-01 00:51:00,40.1,24.3,30.31,SSE,162,0.0,6.0,53,0.00,,,0.00,Wunderground v.1.15,2013-12-01 05:51:00,
2013-12-01 00:57:00,40.3,24.1,30.30,SSE,162,1.0,6.0,52,0.00,,,0.00,Wunderground v.1.15,2013-12-01 05:57:00,
2013-12-01 01:02:00,40.5,24.2,30.30,South,191,1.0,1.0,52,0.00,,,0.00,Wunderground v.1.15,2013-12-01 06:02:00,
2013-12-01 01:07:00,40.5,24.2,30.30,South,190,0.0,4.0,52,0.00,,,0.00,Wunderground v.1.15,2013-12-01 06:07:00,
2013-12-01 01:13:00,40.3,24.1,30.30,South,190,0.0,0.0,52,0.00,,,0.00,Wunderground v.1.15,2013-12-01 06:13:00,
2013-12-01 01:19:00,40.1,24.3,30.30,South,190,0.0,0.0,53,0.00,,,0.00,Wunderground v.1.15,2013-12-01 06:19:00,
2013-12-01 01:24:00,39.6,23.9,30.30,South,190,0.0,0.0,53,0.00,,,0.00,Wunderground v.1.15,2013-12-01 06:24:00,
2013-12-01 01:30:00,39.8,24.5,30.30,SSE,154,0.0,1.0,54,0.00,,,0.00,Wunderground v.1.15,2013-12-01 06:30:00,
2013-12-01 01:35:00,39.9,24.1,30.30,SSE,154,0.0,0.0,53,0.00,,,0.00,Wunderground v.1.15,2013-12-01 06:35:00,
2013-12-01 01:40:00,39.8,24.5,30.29,SSE,156,0.0,0.0,54,0.00,,,0.00,Wunderground v.1.15,2013-12-01 06:40:00,
2013-12-01 01:46:00,39.6,24.3,30.29,SSE,158,0.0,1.0,54,0.00,,,0.00,Wunderground v.1.15,2013-12-01 06:46:00,
2013-12-01 01:51:00,39.6,24.3,30.29,SSE,158,0.0,0.0,54,0.00,,,0.00,Wunderground v.1.15,2013-12-01 06:51:00,
2013-12-01 01:57:00,39.5,24.2,30.28,SSE,166,0.0,5.0,54,0.00,,,0.00,Wunderground v.1.15,2013-12-01 06:57:00,
2013-12-01 02:02:00,39.6,24.3,30.28,SSE,166,0.0,0.0,54,0.00,,,0.00,Wunderground v.1.15,2013-12-01 07:02:00,
2013-12-01 02:08:00,39.5,24.2,30.28,SSE,166,0.0,1.0,54,0.00,,,0.00,Wunderground v.1.15,2013-12-01 07:08:00,
2013-12-01 02:13:00,39.5,24.2,30.28,South,179,0.0,0.0,54,0.00,,,0.00,Wunderground v.1.15,2013-12-01 07:13:00,
2013-12-01 02:19:00,39.3,24.5,30.28,South,179,0.0,1.0,55,0.00,,,0.00,Wunderground v.1.15,2013-12-01 07:19:00,
2013-12-01 02:24:00,39.2,24.4,30.29,South,179,0.0,0.0,55,0.00,,,0.00,Wunderground v.1.15,2013-12-01 07:24:00,
2013-12-01 02:29:00,39.2,24.8,30.29,South,179,0.0,1.0,56,0.00,,,0.00,Wunderground v.1.15,2013-12-01 07:29:00,
2013-12-01 02:35:00,39.3,24.5,30.29,South,179,0.0,3.0,55,0.00,,,0.00,Wunderground v.1.15,2013-12-01 07:35:00,
2013-12-01 02:41:00,39.2,24.4,30.28,South,179,0.0,1.0,55,0.00,,,0.00,Wunderground v.1.15,2013-12-01 07:41:00,
2013-12-01 02:47:00,39.1,24.7,30.28,South,179,0.0,1.0,56,0.00,,,0.00,Wunderground v.1.15,2013-12-01 07:47:00,
2013-12-01 02:53:00,39.3,24.9,30.28,South,179,0.0,4.0,56,0.00,,,0.00,Wunderground v.1.15,2013-12-01 07:53:00,
2013-12-01 02:58:00,39.1,24.7,30.28,South,176,0.0,4.0,56,0.00,,,0.00,Wunderground v.1.15,2013-12-01 07:58:00,
2013-12-01 03:03:00,39.2,25.2,30.28,SSE,162,0.0,0.0,57,0.00,,,0.00,Wunderground v.1.15,2013-12-01 08:03:00,
2013-12-01 03:09:00,39.3,24.9,30.28,SE,146,0.0,3.0,56,0.00,,,0.00,Wunderground v.1.15,2013-12-01 08:09:00,
2013-12-01 03:14:00,39.3,25.3,30.28,SE,137,0.0,1.0,57,0.00,,,0.00,Wunderground v.1.15,2013-12-01 08:14:00,
2013-12-01 03:20:00,39.5,25.5,30.28,SE,146,0.0,0.0,57,0.00,,,0.00,Wunderground v.1.15,2013-12-01 08:20:00,
2013-12-01 03:25:00,39.6,25.6,30.28,SSE,153,0.0,2.0,57,0.00,,,0.00,Wunderground v.1.15,2013-12-01 08:25:00,
2013-12-01 03:31:00,39.6,25.6,30.28,SSE,153,0.0,0.0,57,0.00,,,0.00,Wunderground v.1.15,2013-12-01 08:31:00,
2013-12-01 03:36:00,39.9,25.5,30.28,SE,139,0.0,1.0,56,0.00,,,0.00,Wunderground v.1.15,2013-12-01 08:36:00,
2013-12-01 03:42:00,39.8,25.8,30.28,SE,141,0.0,0.0,57,0.00,,,0.00,Wunderground v.1.15,2013-12-01 08:42:00,
2013-12-01 03:47:00,39.8,25.8,30.28,SE,141,0.0,1.0,57,0.00,,,0.00,Wunderground v.1.15,2013-12-01 08:47:00,
2013-12-01 03:52:00,39.6,25.6,30.28,SE,141,0.0,0.0,57,0.00,,,0.00,Wunderground v.1.15,2013-12-01 08:52:00,
2013-12-01 03:58:00,39.1,25.6,30.28,SE,141,0.0,0.0,58,0.00,,,0.00,Wunderground v.1.15,2013-12-01 08:58:00,
2013-12-01 04:03:00,38.9,25.8,30.28,SE,141,0.0,0.0,59,0.00,,,0.00,Wunderground v.1.15,2013-12-01 09:03:00,
2013-12-01 04:04:00,38.9,25.8,30.28,SE,141,0.0,0.0,59,0.00,,,0.00,Wunderground v.1.15,2013-12-01 09:04:00,
2013-12-01 04:09:00,38.2,25.9,30.28,SE,141,0.0,0.0,61,0.00,,,0.00,Wunderground v.1.15,2013-12-01 09:09:00,
2013-12-01 04:15:00,38.0,25.7,30.28,SE,141,0.0,0.0,61,0.00,,,0.00,Wunderground v.1.15,2013-12-01 09:15:00,
2013-12-01 04:21:00,37.8,25.9,30.28,SE,141,0.0,0.0,62,0.00,,,0.00,Wunderground v.1.15,2013-12-01 09:21:00,
2013-12-01 04:26:00,37.6,25.7,30.28,SE,141,0.0,0.0,62,0.00,,,0.00,Wunderground v.1.15,2013-12-01 09:26:00,
2013-12-01 04:32:00,37.9,26.0,30.28,SE,141,0.0,0.0,62,0.00,,,0.00,Wunderground v.1.15,2013-12-01 09:32:00,
2013-12-01 04:37:00,37.9,26.0,30.27,SE,141,0.0,0.0,62,0.00,,,0.00,Wunderground v.1.15,2013-12-01 09:37:00,
2013-12-01 04:43:00,37.6,25.7,30.27,SSE,152,0.0,2.0,62,0.00,,,0.00,Wunderground v.1.15,2013-12-01 09:43:00,
2013-12-01 04:48:00,37.9,26.0,30.27,SSE,152,0.0,2.0,62,0.00,,,0.00,Wunderground v.1.15,2013-12-01 09:48:00,
2013-12-01 04:54:00,37.6,26.1,30.28,SSE,152,0.0,0.0,63,0.00,,,0.00,Wunderground v.1.15,2013-12-01 09:54:00,
2013-12-01 04:59:00,37.3,25.8,30.28,SSE,152,0.0,0.0,63,0.00,,,0.00,Wunderground v.1.15,2013-12-01 09:59:00,
2013-12-01 05:05:00,37.0,25.9,30.28,SSE,152,0.0,0.0,64,0.00,,,0.00,Wunderground v.1.15,2013-12-01 10:05:00,
2013-12-01 05:10:00,36.8,25.8,30.28,SSE,152,0.0,0.0,64,0.00,,,0.00,Wunderground v.1.15,2013-12-01 10:10:00,
2013-12-01 05:16:00,36.8,25.8,30.28,SSE,152,0.0,0.0,64,0.00,,,0.00,Wunderground v.1.15,2013-12-01 10:16:00,
2013-12-01 05:21:00,36.8,25.8,30.28,SSE,152,0.0,0.0,64,0.00,,,0.00,Wunderground v.1.15,2013-12-01 10:21:00,
2013-12-01 05:26:00,36.5,25.8,30.28,SSE,152,0.0,0.0,65,0.00,,,0.00,Wunderground v.1.15,2013-12-01 10:26:00,
2013-12-01 05:32:00,36.3,25.7,30.28,SSE,152,0.0,0.0,65,0.00,,,0.00,Wunderground v.1.15,2013-12-01 10:32:00,
2013-12-01 05:37:00,36.5,25.8,30.28,SSE,152,0.0,0.0,65,0.00,,,0.00,Wunderground v.1.15,2013-12-01 10:37:00,
2013-12-01 05:43:00,36.5,25.8,30.28,SSE,152,0.0,0.0,65,0.00,,,0.00,Wunderground v.1.15,2013-12-01 10:43:00,
2013-12-01 05:48:00,36.6,25.9,30.28,SSE,152,0.0,0.0,65,0.00,,,0.00,Wunderground v.1.15,2013-12-01 10:48:00,
2013-12-01 05:54:00,36.6,25.9,30.28,SSE,152,0.0,0.0,65,0.00,,,0.00,Wunderground v.1.15,2013-12-01 10:54:00,
2013-12-01 05:59:00,36.6,25.9,30.28,SSE,152,0.0,0.0,65,0.00,,,0.00,Wunderground v.1.15,2013-12-01 10:59:00,
2013-12-01 06:05:00,36.6,25.6,30.28,SSE,152,0.0,0.0,64,0.00,,,0.00,Wunderground v.1.15,2013-12-01 11:05:00,
2013-12-01 06:10:00,36.6,25.6,30.28,SSE,152,0.0,0.0,64,0.00,,,0.00,Wunderground v.1.15,2013-12-01 11:10:00,
2013-12-01 06:16:00,36.9,25.5,30.28,SSE,152,0.0,1.0,63,0.00,,,0.00,Wunderground v.1.15,2013-12-01 11:16:00,
2013-12-01 06:21:00,36.9,25.9,30.28,SSE,152,0.0,0.0,64,0.00,,,0.00,Wunderground v.1.15,2013-12-01 11:21:00,
2013-12-01 06:27:00,37.0,25.6,30.28,SSE,152,0.0,0.0,63,0.00,,,0.00,Wunderground v.1.15,2013-12-01 11:27:00,
2013-12-01 06:32:00,37.3,25.5,30.28,SSE,152,0.0,0.0,62,0.00,,,0.00,Wunderground v.1.15,2013-12-01 11:32:00,
2013-12-01 06:38:00,37.5,25.7,30.27,SSE,152,0.0,0.0,62,0.00,,,0.00,Wunderground v.1.15,2013-12-01 11:38:00,
2013-12-01 06:43:00,37.5,25.7,30.27,SSE,152,0.0,0.0,62,0.00,,,0.00,Wunderground v.1.15,2013-12-01 11:43:00,
2013-12-01 06:49:00,37.5,25.7,30.27,SSE,152,0.0,0.0,62,0.00,,,0.00,Wunderground v.1.15,2013-12-01 11:49:00,
2013-12-01 06:54:00,37.6,25.7,30.27,SSE,152,0.0,0.0,62,0.00,,,0.00,Wunderground v.1.15,2013-12-01 11:54:00,
2013-12-01 07:00:00,37.6,25.7,30.27,SSE,152,0.0,0.0,62,0.00,,,0.00,Wunderground v.1.15,2013-12-01 12:00:00,
2013-12-01 07:05:00,37.2,25.4,30.27,SSE,152,0.0,1.0,62,0.00,,,0.00,Wunderground v.1.15,2013-12-01 12:05:00,
2013-12-01 07:10:00,36.6,25.6,30.28,SSE,152,0.0,0.0,64,0.00,,,0.00,Wunderground v.1.15,2013-12-01 12:10:00,
2013-12-01 07:16:00,36.2,25.6,30.28,SSE,152,0.0,0.0,65,0.00,,,0.00,Wunderground v.1.15,2013-12-01 12:16:00,
2013-12-01 07:22:00,35.8,25.2,30.28,SSE,152,0.0,0.0,65,0.00,,,0.00,Wunderground v.1.15,2013-12-01 12:22:00,
2013-12-01 07:28:00,35.6,25.4,30.28,SSE,152,0.0,0.0,66,0.00,,,0.00,Wunderground v.1.15,2013-12-01 12:28:00,
2013-12-01 07:34:00,35.5,25.3,30.28,SSE,152,0.0,0.0,66,0.00,,,0.00,Wunderground v.1.15,2013-12-01 12:34:00,
2013-12-01 07:39:00,35.6,25.4,30.28,SSE,152,0.0,0.0,66,0.00,,,0.00,Wunderground v.1.15,2013-12-01 12:39:00,
2013-12-01 07:44:00,35.5,25.6,30.28,SSE,152,0.0,0.0,67,0.00,,,0.00,Wunderground v.1.15,2013-12-01 12:44:00,
2013-12-01 07:50:00,35.6,25.7,30.28,SSE,152,0.0,0.0,67,0.00,,,0.00,Wunderground v.1.15,2013-12-01 12:50:00,
2013-12-01 07:55:00,35.8,25.5,30.28,SSE,152,0.0,0.0,66,0.00,,,0.00,Wunderground v.1.15,2013-12-01 12:55:00,
2013-12-01 08:01:00,35.8,25.9,30.28,SSE,152,0.0,0.0,67,0.00,,,0.00,Wunderground v.1.15,2013-12-01 13:01:00,
2013-12-01 08:06:00,35.8,25.9,30.28,SSE,152,0.0,0.0,67,0.00,,,0.00,Wunderground v.1.15,2013-12-01 13:06:00,
2013-12-01 08:12:00,36.2,25.9,30.28,SSE,152,0.0,0.0,66,0.00,,,0.00,Wunderground v.1.15,2013-12-01 13:12:00,
2013-12-01 08:17:00,36.8,26.5,30.28,SSE,152,0.0,0.0,66,0.00,,,0.00,Wunderground v.1.15,2013-12-01 13:17:00,
2013-12-01 08:23:00,37.2,26.9,30.28,SSE,152,0.0,0.0,66,0.00,,,0.00,Wunderground v.1.15,2013-12-01 13:23:00,
2013-12-01 08:28:00,37.5,26.4,30.28,SSE,152,0.0,0.0,64,0.00,,,0.00,Wunderground v.1.15,2013-12-01 13:28:00,
2013-12-01 08:34:00,38.0,26.9,30.28,SSE,152,0.0,0.0,64,0.00,,,0.00,Wunderground v.1.15,2013-12-01 13:34:00,
2013-12-01 08:39:00,38.8,28.0,30.28,SSE,152,0.0,0.0,65,0.00,,,0.00,Wunderground v.1.15,2013-12-01 13:39:00,
2013-12-01 08:45:00,39.5,27.2,30.28,SSE,152,0.0,0.0,61,0.00,,,0.00,Wunderground v.1.15,2013-12-01 13:45:00,
2013-12-01 08:50:00,39.8,27.4,30.28,SSE,152,0.0,0.0,61,0.00,,,0.00,Wunderground v.1.15,2013-12-01 13:50:00,
2013-12-01 08:56:00,40.2,27.0,30.27,SSE,152,0.0,2.0,59,0.00,,,0.00,Wunderground v.1.15,2013-12-01 13:56:00,
2013-12-01 09:02:00,40.5,27.3,30.27,SSE,152,0.0,0.0,59,0.00,,,0.00,Wunderground v.1.15,2013-12-01 14:02:00,
2013-12-01 09:08:00,40.6,27.4,30.27,SSE,152,0.0,0.0,59,0.00,,,0.00,Wunderground v.1.15,2013-12-01 14:08:00,
2013-12-01 09:13:00,40.9,27.2,30.27,SSE,152,0.0,0.0,58,0.00,,,0.00,Wunderground v.1.15,2013-12-01 14:13:00,
2013-12-01 09:18:00,41.1,27.4,30.27,SSE,152,0.0,2.0,58,0.00,,,0.00,Wunderground v.1.15,2013-12-01 14:18:00,
2013-12-01 09:24:00,41.5,27.8,30.27,SSE,152,0.0,1.0,58,0.00,,,0.00,Wunderground v.1.15,2013-12-01 14:24:00,
2013-12-01 09:29:00,41.9,28.2,30.27,SSE,152,0.0,1.0,58,0.00,,,0.00,Wunderground v.1.15,2013-12-01 14:29:00,
2013-12-01 09:35:00,42.6,28.0,30.27,SSE,152,0.0,0.0,56,0.00,,,0.00,Wunderground v.1.15,2013-12-01 14:35:00,
2013-12-01 09:40:00,43.2,28.1,30.27,ESE,115,0.0,1.0,55,0.00,,,0.00,Wunderground v.1.15,2013-12-01 14:40:00,
2013-12-01 09:46:00,43.5,27.9,30.27,ESE,115,0.0,1.0,54,0.00,,,0.00,Wunderground v.1.15,2013-12-01 14:46:00,
2013-12-01 09:51:00,43.3,27.3,30.27,ESE,115,0.0,0.0,53,0.00,,,0.00,Wunderground v.1.15,2013-12-01 14:51:00,
2013-12-01 09:57:00,43.6,27.6,30.27,ESE,122,0.0,0.0,53,0.00,,,0.00,Wunderground v.1.15,2013-12-01 14:57:00,
2013-12-01 10:02:00,44.1,28.5,30.27,ESE,122,0.0,0.0,54,0.00,,,0.00,Wunderground v.1.15,2013-12-01 15:02:00,
2013-12-01 10:08:00,44.1,28.5,30.26,ESE,122,0.0,0.0,54,0.00,,,0.00,Wunderground v.1.15,2013-12-01 15:08:00,
2013-12-01 10:13:00,44.6,28.5,30.26,East,97,0.0,3.0,53,0.00,,,0.00,Wunderground v.1.15,2013-12-01 15:13:00,
2013-12-01 10:19:00,45.8,29.6,30.26,ESE,103,1.0,3.0,53,0.00,,,0.00,Wunderground v.1.15,2013-12-01 15:19:00,
2013-12-01 10:24:00,46.0,28.4,30.25,ESE,111,1.0,2.0,50,0.00,,,0.00,Wunderground v.1.15,2013-12-01 15:24:00,
2013-12-01 10:30:00,45.7,29.1,30.25,ESE,111,0.0,0.0,52,0.00,,,0.00,Wunderground v.1.15,2013-12-01 15:30:00,
2013-12-01 10:35:00,45.5,28.9,30.25,ESE,111,0.0,2.0,52,0.00,,,0.00,Wunderground v.1.15,2013-12-01 15:35:00,
2013-12-01 10:41:00,44.5,29.3,30.25,East,91,1.0,4.0,55,0.00,,,0.00,Wunderground v.1.15,2013-12-01 15:41:00,
2013-12-01 10:46:00,44.5,29.3,30.25,East,87,2.0,4.0,55,0.00,,,0.00,Wunderground v.1.15,2013-12-01 15:46:00,
2013-12-01 10:52:00,45.4,30.2,30.25,ENE,76,1.0,1.0,55,0.00,,,0.00,Wunderground v.1.15,2013-12-01 15:52:00,
2013-12-01 10:57:00,46.4,29.7,30.25,ENE,76,1.0,4.0,52,0.00,,,0.00,Wunderground v.1.15,2013-12-01 15:57:00,
2013-12-01 11:02:00,46.4,29.7,30.25,ENE,77,1.0,4.0,52,0.00,,,0.00,Wunderground v.1.15,2013-12-01 16:02:00,
2013-12-01 11:08:00,46.2,29.5,30.25,ENE,73,1.0,4.0,52,0.00,,,0.00,Wunderground v.1.15,2013-12-01 16:08:00,
2013-12-01 11:14:00,47.0,29.3,30.25,East,79,1.0,3.0,50,0.00,,,0.00,Wunderground v.1.15,2013-12-01 16:14:00,
2013-12-01 11:20:00,46.1,28.5,30.25,ENE,72,2.0,2.0,50,0.00,,,0.00,Wunderground v.1.15,2013-12-01 16:20:00,
2013-12-01 11:25:00,46.0,29.3,30.24,ENE,67,3.0,3.0,52,0.00,,,0.00,Wunderground v.1.15,2013-12-01 16:25:00,
2013-12-01 11:31:00,45.8,28.2,30.24,NE,54,2.0,6.0,50,0.00,,,0.00,Wunderground v.1.15,2013-12-01 16:31:00,
2013-12-01 11:36:00,46.0,28.4,30.24,NE,55,2.0,6.0,50,0.00,,,0.00,Wunderground v.1.15,2013-12-01 16:36:00,
2013-12-01 11:42:00,46.7,29.0,30.23,NE,52,1.0,4.0,50,0.00,,,0.00,Wunderground v.1.15,2013-12-01 16:42:00,
2013-12-01 11:47:00,46.4,28.8,30.23,ENE,59,2.0,4.0,50,0.00,,,0.00,Wunderground v.1.15,2013-12-01 16:47:00,
2013-12-01 11:53:00,47.3,29.6,30.22,ENE,59,2.0,2.0,50,0.00,,,0.00,Wunderground v.1.15,2013-12-01 16:53:00,
2013-12-01 11:58:00,47.0,29.3,30.22,ENE,60,0.0,4.0,50,0.00,,,0.00,Wunderground v.1.15,2013-12-01 16:58:00,
2013-12-01 12:04:00,47.0,28.8,30.22,ENE,60,1.0,4.0,49,0.00,,,0.00,Wunderground v.1.15,2013-12-01 17:04:00,
2013-12-01 12:09:00,47.0,30.3,30.21,ENE,61,1.0,4.0,52,0.00,,,0.00,Wunderground v.1.15,2013-12-01 17:09:00,
2013-12-01 12:15:00,47.3,29.1,30.21,ENE,63,2.0,2.0,49,0.00,,,0.00,Wunderground v.1.15,2013-12-01 17:15:00,
2013-12-01 12:20:00,47.4,29.7,30.21,ENE,65,2.0,2.0,50,0.00,,,0.00,Wunderground v.1.15,2013-12-01 17:20:00,
2013-12-01 12:26:00,48.0,29.7,30.20,ENE,65,1.0,2.0,49,0.00,,,0.00,Wunderground v.1.15,2013-12-01 17:26:00,
2013-12-01 12:31:00,48.5,30.2,30.20,ENE,65,1.0,1.0,49,0.00,,,0.00,Wunderground v.1.15,2013-12-01 17:31:00,
2013-12-01 12:37:00,48.9,30.6,30.19,ENE,68,2.0,4.0,49,0.00,,,0.00,Wunderground v.1.15,2013-12-01 17:37:00,
2013-12-01 12:42:00,49.4,30.5,30.19,ENE,68,1.0,1.0,48,0.00,,,0.00,Wunderground v.1.15,2013-12-01 17:42:00,
2013-12-01 12:48:00,49.2,30.3,30.19,ENE,70,0.0,5.0,48,0.00,,,0.00,Wunderground v.1.15,2013-12-01 17:48:00,
2013-12-01 12:53:00,48.2,30.9,30.18,ENE,72,2.0,4.0,51,0.00,,,0.00,Wunderground v.1.15,2013-12-01 17:53:00,
2013-12-01 12:59:00,47.7,30.4,30.18,ENE,71,2.0,6.0,51,0.00,,,0.00,Wunderground v.1.15,2013-12-01 17:59:00,
2013-12-01 13:04:00,48.0,31.2,30.18,ENE,70,2.0,2.0,52,0.00,,,0.00,Wunderground v.1.15,2013-12-01 18:04:00,
2013-12-01 13:09:00,48.8,31.5,30.18,ENE,63,1.0,4.0,51,0.00,,,0.00,Wunderground v.1.15,2013-12-01 18:09:00,
2013-12-01 13:15:00,47.9,30.6,30.18,ENE,73,3.0,6.0,51,0.00,,,0.00,Wunderground v.1.15,2013-12-01 18:15:00,
2013-12-01 13:20:00,47.7,31.4,30.18,ENE,58,4.0,4.0,53,0.00,,,0.00,Wunderground v.1.15,2013-12-01 18:20:00,
2013-12-01 13:26:00,47.7,30.9,30.17,ENE,62,2.0,4.0,52,0.00,,,0.00,Wunderground v.1.15,2013-12-01 18:26:00,
2013-12-01 13:31:00,48.5,31.7,30.17,ENE,62,2.0,2.0,52,0.00,,,0.00,Wunderground v.1.15,2013-12-01 18:31:00,
2013-12-01 13:37:00,48.9,31.5,30.15,ENE,62,0.0,2.0,51,0.00,,,0.00,Wunderground v.1.15,2013-12-01 18:37:00,
2013-12-01 13:42:00,49.2,31.8,30.15,ENE,63,1.0,4.0,51,0.00,,,0.00,Wunderground v.1.15,2013-12-01 18:42:00,
2013-12-01 13:48:00,49.8,31.9,30.15,ENE,63,2.0,5.0,50,0.00,,,0.00,Wunderground v.1.15,2013-12-01 18:48:00,
2013-12-01 13:53:00,49.5,31.6,30.15,ENE,65,3.0,5.0,50,0.00,,,0.00,Wunderground v.1.15,2013-12-01 18:53:00,
2013-12-01 13:59:00,49.1,31.2,30.15,ENE,75,3.0,5.0,50,0.00,,,0.00,Wunderground v.1.15,2013-12-01 18:59:00,
2013-12-01 14:05:00,49.1,31.7,30.15,ENE,75,3.0,5.0,51,0.00,,,0.00,Wunderground v.1.15,2013-12-01 19:05:00,
2013-12-01 14:10:00,49.1,32.2,30.14,ENE,75,2.0,3.0,52,0.00,,,0.00,Wunderground v.1.15,2013-12-01 19:10:00,
2013-12-01 14:16:00,49.4,32.0,30.14,ENE,75,3.0,4.0,51,0.00,,,0.00,Wunderground v.1.15,2013-12-01 19:16:00,
2013-12-01 14:21:00,49.2,31.8,30.14,ENE,75,3.0,4.0,51,0.00,,,0.00,Wunderground v.1.15,2013-12-01 19:21:00,
2013-12-01 14:27:00,49.5,32.6,30.13,ENE,75,1.0,4.0,52,0.00,,,0.00,Wunderground v.1.15,2013-12-01 19:27:00,
2013-12-01 14:32:00,49.8,32.4,30.13,ENE,75,1.0,4.0,51,0.00,,,0.00,Wunderground v.1.15,2013-12-01 19:32:00,
2013-12-01 14:37:00,49.9,33.0,30.13,ENE,75,2.0,4.0,52,0.00,,,0.00,Wunderground v.1.15,2013-12-01 19:37:00,
2013-12-01 14:40:00,50.1,32.7,30.13,ENE,65,2.0,2.0,51,0.00,,,0.00,Wunderground v.1.15,2013-12-01 19:40:00,
2013-12-01 14:46:00,49.8,32.4,30.13,ENE,65,1.0,5.0,51,0.00,,,0.00,Wunderground v.1.15,2013-12-01 19:46:00,
2013-12-01 14:51:00,49.6,32.7,30.13,ENE,65,2.0,2.0,52,0.00,,,0.00,Wunderground v.1.15,2013-12-01 19:51:00,
2013-12-01 14:57:00,49.4,32.5,30.12,ENE,65,2.0,4.0,52,0.00,,,0.00,Wunderground v.1.15,2013-12-01 19:57:00,
2013-12-01 15:02:00,49.4,33.0,30.12,ENE,65,2.0,4.0,53,0.00,,,0.00,Wunderground v.1.15,2013-12-01 20:02:00,
2013-12-01 15:07:00,49.2,32.8,30.12,ENE,65,2.0,4.0,53,0.00,,,0.00,Wunderground v.1.15,2013-12-01 20:07:00,
2013-12-01 15:14:00,49.2,32.8,30.12,ENE,65,2.0,2.0,53,0.00,,,0.00,Wunderground v.1.15,2013-12-01 20:14:00,
2013-12-01 15:19:00,49.5,33.1,30.12,ENE,65,0.0,2.0,53,0.00,,,0.00,Wunderground v.1.15,2013-12-01 20:19:00,
2013-12-01 15:24:00,49.6,33.2,30.11,ENE,65,0.0,4.0,53,0.00,,,0.00,Wunderground v.1.15,2013-12-01 20:24:00,
2013-12-01 15:30:00,49.6,33.2,30.11,ENE,65,1.0,1.0,53,0.00,,,0.00,Wunderground v.1.15,2013-12-01 20:30:00,
2013-12-01 15:35:00,49.8,33.8,30.11,ENE,65,0.0,2.0,54,0.00,,,0.00,Wunderground v.1.15,2013-12-01 20:35:00,
2013-12-01 15:41:00,49.9,33.9,30.10,ENE,65,1.0,1.0,54,0.00,,,0.00,Wunderground v.1.15,2013-12-01 20:41:00,
2013-12-01 15:46:00,49.9,33.9,30.10,ENE,65,1.0,2.0,54,0.00,,,0.00,Wunderground v.1.15,2013-12-01 20:46:00,
2013-12-01 15:52:00,49.9,33.9,30.10,ENE,65,1.0,1.0,54,0.00,,,0.00,Wunderground v.1.15,2013-12-01 20:52:00,
2013-12-01 15:57:00,50.1,34.5,30.10,ENE,65,0.0,1.0,55,0.00,,,0.00,Wunderground v.1.15,2013-12-01 20:57:00,
2013-12-01 16:03:00,50.1,34.1,30.10,ENE,65,0.0,0.0,54,0.00,,,0.00,Wunderground v.1.15,2013-12-01 21:03:00,
2013-12-01 16:09:00,50.1,34.1,30.10,ENE,65,1.0,5.0,54,0.00,,,0.00,Wunderground v.1.15,2013-12-01 21:09:00,
2013-12-01 16:15:00,49.9,34.4,30.10,ENE,65,1.0,3.0,55,0.00,,,0.00,Wunderground v.1.15,2013-12-01 21:15:00,
2013-12-01 16:21:00,49.9,34.4,30.10,ENE,65,0.0,0.0,55,0.00,,,0.00,Wunderground v.1.15,2013-12-01 21:21:00,
2013-12-01 16:26:00,49.8,34.3,30.10,ENE,65,0.0,1.0,55,0.00,,,0.00,Wunderground v.1.15,2013-12-01 21:26:00,
2013-12-01 16:31:00,49.5,34.0,30.10,ENE,65,1.0,1.0,55,0.00,,,0.00,Wunderground v.1.15,2013-12-01 21:31:00,
2013-12-01 16:37:00,49.4,34.3,30.10,ENE,65,1.0,4.0,56,0.00,,,0.00,Wunderground v.1.15,2013-12-01 21:37:00,
2013-12-01 16:42:00,49.2,34.2,30.10,ENE,65,1.0,1.0,56,0.00,,,0.00,Wunderground v.1.15,2013-12-01 21:42:00,
2013-12-01 16:48:00,49.2,34.2,30.10,ENE,65,0.0,2.0,56,0.00,,,0.00,Wunderground v.1.15,2013-12-01 21:48:00,
2013-12-01 16:53:00,49.1,34.5,30.10,ENE,65,0.0,0.0,57,0.00,,,0.00,Wunderground v.1.15,2013-12-01 21:53:00,
2013-12-01 16:59:00,48.9,34.3,30.10,ENE,65,0.0,0.0,57,0.00,,,0.00,Wunderground v.1.15,2013-12-01 21:59:00,
2013-12-01 17:04:00,48.8,34.7,30.10,ENE,65,0.0,0.0,58,0.00,,,0.00,Wunderground v.1.15,2013-12-01 22:04:00,
2013-12-01 17:10:00,48.6,34.5,30.09,ENE,65,0.0,0.0,58,0.00,,,0.00,Wunderground v.1.15,2013-12-01 22:10:00,
2013-12-01 17:15:00,48.5,34.4,30.09,ENE,65,0.0,0.0,58,0.00,,,0.00,Wunderground v.1.15,2013-12-01 22:15:00,
2013-12-01 17:20:00,48.3,34.2,30.09,ENE,65,0.0,0.0,58,0.00,,,0.00,Wunderground v.1.15,2013-12-01 22:20:00,
2013-12-01 17:26:00,48.5,34.4,30.09,ENE,65,0.0,0.0,58,0.00,,,0.00,Wunderground v.1.15,2013-12-01 22:26:00,
2013-12-01 17:32:00,48.5,33.9,30.09,ENE,65,0.0,0.0,57,0.00,,,0.00,Wunderground v.1.15,2013-12-01 22:32:00,
2013-12-01 17:37:00,48.3,33.8,30.09,ENE,65,0.0,0.0,57,0.00,,,0.00,Wunderground v.1.15,2013-12-01 22:37:00,
2013-12-01 17:43:00,48.3,34.2,30.09,ENE,65,0.0,0.0,58,0.00,,,0.00,Wunderground v.1.15,2013-12-01 22:43:00,
2013-12-01 17:48:00,48.2,34.1,30.09,ENE,65,0.0,0.0,58,0.00,,,0.00,Wunderground v.1.15,2013-12-01 22:48:00,
2013-12-01 17:53:00,48.0,33.9,30.08,ENE,65,0.0,0.0,58,0.00,,,0.00,Wunderground v.1.15,2013-12-01 22:53:00,
2013-12-01 17:59:00,48.0,33.9,30.08,ENE,65,0.0,0.0,58,0.00,,,0.00,Wunderground v.1.15,2013-12-01 22:59:00,
2013-12-01 18:04:00,47.9,33.8,30.08,ENE,65,0.0,0.0,58,0.00,,,0.00,Wunderground v.1.15,2013-12-01 23:04:00,
2013-12-01 18:10:00,47.9,34.3,30.08,ENE,65,0.0,0.0,59,0.00,,,0.00,Wunderground v.1.15,2013-12-01 23:10:00,
2013-12-01 18:15:00,47.7,34.1,30.08,ENE,65,0.0,0.0,59,0.00,,,0.00,Wunderground v.1.15,2013-12-01 23:15:00,
2013-12-01 18:21:00,47.7,33.6,30.08,ENE,65,0.0,0.0,58,0.00,,,0.00,Wunderground v.1.15,2013-12-01 23:21:00,
2013-12-01 18:26:00,47.7,34.1,30.08,ENE,65,0.0,0.0,59,0.00,,,0.00,Wunderground v.1.15,2013-12-01 23:26:00,
2013-12-01 18:32:00,47.7,33.6,30.08,ENE,65,0.0,0.0,58,0.00,,,0.00,Wunderground v.1.15,2013-12-01 23:32:00,
2013-12-01 18:37:00,47.7,34.1,30.08,ENE,65,0.0,0.0,59,0.00,,,0.00,Wunderground v.1.15,2013-12-01 23:37:00,
2013-12-01 18:43:00,47.7,33.6,30.08,ENE,65,0.0,0.0,58,0.00,,,0.00,Wunderground v.1.15,2013-12-01 23:43:00,
2013-12-01 18:48:00,47.7,34.1,30.08,ENE,65,0.0,0.0,59,0.00,,,0.00,Wunderground v.1.15,2013-12-01 23:48:00,
2013-12-01 18:54:00,47.6,34.0,30.08,ENE,65,0.0,0.0,59,0.00,,,0.00,Wunderground v.1.15,2013-12-01 23:54:00,
2013-12-01 18:59:00,47.6,34.4,30.08,ENE,65,0.0,0.0,60,0.00,,,0.00,Wunderground v.1.15,2013-12-01 23:59:00,
2013-12-01 19:05:00,47.4,34.2,30.08,ENE,65,0.0,0.0,60,0.00,,,0.00,Wunderground v.1.15,2013-12-02 00:05:00,
2013-12-01 19:10:00,47.3,34.1,30.09,ENE,65,0.0,0.0,60,0.00,,,0.00,Wunderground v.1.15,2013-12-02 00:10:00,
2013-12-01 19:16:00,47.3,34.1,30.09,ENE,65,0.0,0.0,60,0.00,,,0.00,Wunderground v.1.15,2013-12-02 00:16:00,
2013-12-01 19:21:00,47.3,33.7,30.09,ENE,65,0.0,0.0,59,0.00,,,0.00,Wunderground v.1.15,2013-12-02 00:21:00,
2013-12-01 19:27:00,47.3,33.7,30.08,ENE,65,0.0,0.0,59,0.00,,,0.00,Wunderground v.1.15,2013-12-02 00:27:00,
2013-12-01 19:32:00,47.3,33.7,30.08,ENE,65,0.0,0.0,59,0.00,,,0.00,Wunderground v.1.15,2013-12-02 00:32:00,
2013-12-01 19:38:00,47.3,34.1,30.09,ENE,65,0.0,0.0,60,0.00,,,0.00,Wunderground v.1.15,2013-12-02 00:38:00,
2013-12-01 19:43:00,47.1,33.9,30.09,ENE,65,0.0,0.0,60,0.00,,,0.00,Wunderground v.1.15,2013-12-02 00:43:00,
2013-12-01 19:49:00,47.1,33.9,30.09,ENE,65,0.0,0.0,60,0.00,,,0.00,Wunderground v.1.15,2013-12-02 00:49:00,
2013-12-01 19:54:00,47.0,33.8,30.07,ENE,65,0.0,0.0,60,0.00,,,0.00,Wunderground v.1.15,2013-12-02 00:54:00,
2013-12-01 20:00:00,47.0,33.8,30.07,ENE,65,0.0,0.0,60,0.00,,,0.00,Wunderground v.1.15,2013-12-02 01:00:00,
2013-12-01 20:05:00,47.0,33.8,30.07,ENE,65,0.0,0.0,60,0.00,,,0.00,Wunderground v.1.15,2013-12-02 01:05:00,
2013-12-01 20:10:00,47.1,33.9,30.07,ENE,65,0.0,0.0,60,0.00,,,0.00,Wunderground v.1.15,2013-12-02 01:10:00,
2013-12-01 20:16:00,47.1,33.9,30.07,ENE,65,0.0,0.0,60,0.00,,,0.00,Wunderground v.1.15,2013-12-02 01:16:00,
2013-12-01 20:21:00,47.1,33.9,30.07,ENE,65,0.0,0.0,60,0.00,,,0.00,Wunderground v.1.15,2013-12-02 01:21:00,
2013-12-01 20:27:00,47.1,34.3,30.07,ENE,65,0.0,0.0,61,0.00,,,0.00,Wunderground v.1.15,2013-12-02 01:27:00,
2013-12-01 20:32:00,47.1,33.9,30.07,ENE,65,0.0,0.0,60,0.00,,,0.00,Wunderground v.1.15,2013-12-02 01:32:00,
2013-12-01 20:38:00,47.0,34.2,30.07,ENE,65,0.0,0.0,61,0.00,,,0.00,Wunderground v.1.15,2013-12-02 01:38:00,
2013-12-01 20:43:00,47.0,34.2,30.07,ENE,65,0.0,0.0,61,0.00,,,0.00,Wunderground v.1.15,2013-12-02 01:43:00,
2013-12-01 20:49:00,47.0,34.2,30.07,ENE,65,0.0,0.0,61,0.00,,,0.00,Wunderground v.1.15,2013-12-02 01:49:00,
2013-12-01 20:54:00,46.8,34.5,30.05,ENE,65,0.0,0.0,62,0.00,,,0.00,Wunderground v.1.15,2013-12-02 01:54:00,
2013-12-01 21:00:00,46.7,34.4,30.05,ENE,65,0.0,0.0,62,0.00,,,0.00,Wunderground v.1.15,2013-12-02 02:00:00,
2013-12-01 21:05:00,46.5,34.6,30.05,ENE,65,0.0,0.0,63,0.00,,,0.00,Wunderground v.1.15,2013-12-02 02:05:00,
2013-12-01 21:11:00,46.5,34.6,30.05,ENE,65,0.0,0.0,63,0.00,,,0.00,Wunderground v.1.15,2013-12-02 02:11:00,
2013-12-01 21:16:00,46.5,34.6,30.05,ENE,65,0.0,0.0,63,0.00,,,0.00,Wunderground v.1.15,2013-12-02 02:16:00,
2013-12-01 21:22:00,46.5,34.2,30.05,ENE,65,0.0,0.0,62,0.00,,,0.00,Wunderground v.1.15,2013-12-02 02:22:00,
2013-12-01 21:27:00,46.5,34.6,30.05,ENE,65,0.0,0.0,63,0.00,,,0.00,Wunderground v.1.15,2013-12-02 02:27:00,
2013-12-01 21:33:00,46.5,34.2,30.05,ENE,65,0.0,0.0,62,0.00,,,0.00,Wunderground v.1.15,2013-12-02 02:33:00,
2013-12-01 21:38:00,46.5,34.6,30.05,ENE,65,0.0,0.0,63,0.00,,,0.00,Wunderground v.1.15,2013-12-02 02:38:00,
2013-12-01 21:43:00,46.4,34.5,30.05,ENE,65,0.0,0.0,63,0.00,,,0.00,Wunderground v.1.15,2013-12-02 02:43:00,
2013-12-01 21:49:00,46.5,34.6,30.05,ENE,65,0.0,0.0,63,0.00,,,0.00,Wunderground v.1.15,2013-12-02 02:49:00,
2013-12-01 21:54:00,46.4,34.5,30.04,ENE,65,0.0,0.0,63,0.00,,,0.00,Wunderground v.1.15,2013-12-02 02:54:00,
2013-12-01 22:00:00,46.2,35.1,30.04,ENE,65,0.0,0.0,65,0.00,,,0.00,Wunderground v.1.15,2013-12-02 03:00:00,
2013-12-01 22:05:00,46.2,33.9,30.04,ENE,65,0.0,0.0,62,0.00,,,0.00,Wunderground v.1.15,2013-12-02 03:05:00,
2013-12-01 22:11:00,46.5,34.2,30.04,ENE,65,0.0,0.0,62,0.00,,,0.00,Wunderground v.1.15,2013-12-02 03:11:00,
2013-12-01 22:16:00,46.5,34.6,30.04,ENE,65,0.0,0.0,63,0.00,,,0.00,Wunderground v.1.15,2013-12-02 03:16:00,
2013-12-01 22:22:00,46.5,34.2,30.03,ENE,65,0.0,0.0,62,0.00,,,0.00,Wunderground v.1.15,2013-12-02 03:22:00,
2013-12-01 22:27:00,46.5,34.6,30.03,ENE,65,0.0,0.0,63,0.00,,,0.00,Wunderground v.1.15,2013-12-02 03:27:00,
2013-12-01 22:33:00,46.5,33.8,30.03,ENE,65,0.0,0.0,61,0.00,,,0.00,Wunderground v.1.15,2013-12-02 03:33:00,
2013-12-01 22:38:00,46.7,33.5,30.03,ENE,65,0.0,0.0,60,0.00,,,0.00,Wunderground v.1.15,2013-12-02 03:38:00,
2013-12-01 22:44:00,46.7,33.5,30.03,ENE,65,0.0,0.0,60,0.00,,,0.00,Wunderground v.1.15,2013-12-02 03:44:00,
2013-12-01 22:49:00,46.8,34.0,30.03,ENE,65,0.0,0.0,61,0.00,,,0.00,Wunderground v.1.15,2013-12-02 03:49:00,
2013-12-01 22:55:00,46.7,34.0,30.03,ENE,65,0.0,0.0,61,0.00,,,0.00,Wunderground v.1.15,2013-12-02 03:55:00,
2013-12-01 23:00:00,46.8,33.6,30.03,ENE,65,0.0,0.0,60,0.00,,,0.00,Wunderground v.1.15,2013-12-02 04:00:00,
2013-12-01 23:05:00,46.8,34.0,30.03,ENE,65,0.0,0.0,61,0.00,,,0.00,Wunderground v.1.15,2013-12-02 04:05:00,
2013-12-01 23:11:00,46.8,34.0,30.02,ENE,65,0.0,0.0,61,0.00,,,0.00,Wunderground v.1.15,2013-12-02 04:11:00,
2013-12-01 23:16:00,46.8,34.9,30.02,ENE,65,0.0,0.0,63,0.00,,,0.00,Wunderground v.1.15,2013-12-02 04:16:00,
2013-12-01 23:22:00,46.5,34.2,30.02,ENE,65,0.0,0.0,62,0.00,,,0.00,Wunderground v.1.15,2013-12-02 04:22:00,
2013-12-01 23:27:00,46.5,34.2,30.02,ENE,65,0.0,0.0,62,0.00,,,0.00,Wunderground v.1.15,2013-12-02 04:27:00,
2013-12-01 23:33:00,46.4,34.9,30.02,ENE,65,0.0,0.0,64,0.00,,,0.00,Wunderground v.1.15,2013-12-02 04:33:00,
2013-12-01 23:38:00,46.4,35.3,30.01,ENE,65,0.0,0.0,65,0.00,,,0.00,Wunderground v.1.15,2013-12-02 04:38:00,
2013-12-01 23:44:00,46.2,35.1,30.01,ENE,65,0.0,0.0,65,0.00,,,0.00,Wunderground v.1.15,2013-12-02 04:44:00,
2013-12-01 23:49:00,46.2,35.5,30.01,ENE,65,0.0,0.0,66,0.00,,,0.00,Wunderground v.1.15,2013-12-02 04:49:00,
2013-12-01 23:54:00,46.2,35.8,30.00,ENE,65,0.0,0.0,67,0.00,,,0.00,Wunderground v.1.15,2013-12-02 04:54:00,